Probability
28 30 34 40 46 49 49 48 48 47 43 40 39 37 38 36 30 23 20 20 17 15 15 13 11 9 6 6 9 10 10 10 7 3 3 7 10 12 14 15 13 11 10
29 29 33 38 44 48 48 48 49 46 42 40 38 36 36 34 29 24 23 22 19 16 14 13 13 10 9 10 11 10 9 8 6 3 3 5 8 11 12 12 12 11 10
25 28 32 37 43 45 45 46 47 44 42 40 35 32 32 30 26 24 24 22 20 18 14 14 14 14 14 14 15 12 9 7 5 3 3 4 7 8 9 10 11 11 11
23 27 32 39 42 42 43 43 43 42 41 37 31 27 27 25 23 22 21 19 18 18 15 13 15 17 16 16 15 12 10 7 5 4 5 7 8 8 8 9 10 11 12
24 26 33 38 38 38 40 41 41 41 38 33 30 28 26 23 20 18 16 15 16 15 13 13 17 18 15 14 14 12 11 9 7 5 6 8 8 8 7 8 9 10 11
25 27 32 36 35 35 37 38 40 40 38 34 33 32 27 24 20 17 15 15 14 13 12 14 18 19 16 15 17 16 13 12 10 9 7 7 6 6 6 6 6 8 9
25 26 29 32 33 33 34 35 37 40 39 36 35 33 29 26 22 18 17 16 14 13 12 15 18 19 17 18 20 19 16 13 12 11 10 8 6 6 5 4 4 6 6
22 23 24 25 28 30 32 32 35 38 38 35 34 33 30 26 22 20 19 18 15 13 13 15 16 17 16 16 18 17 15 14 13 13 13 11 9 7 6 5 5 5 5
18 19 19 19 22 28 30 31 34 37 35 34 33 32 29 24 21 21 20 18 15 13 14 15 15 14 14 14 15 16 16 14 13 13 13 13 10 8 7 7 6 6 4
17 18 19 20 22 25 28 29 32 33 32 31 31 31 27 22 19 20 21 19 16 14 15 15 14 13 13 13 15 17 16 14 13 12 12 12 11 10 9 8 7 6 5
19 20 23 24 23 23 24 27 28 28 28 28 29 30 27 22 19 19 21 21 18 16 15 16 14 13 13 13 14 15 15 13 11 10 10 10 10 10 9 8 6 6 6
23 23 25 25 23 22 23 26 27 27 26 27 28 28 25 22 21 21 23 23 19 16 15 15 14 13 12 12 12 12 12 11 10 10 9 9 9 9 8 7 6 7 6
25 24 22 23 24 24 25 28 29 28 26 27 28 25 22 21 21 22 23 21 18 15 13 14 13 11 10 9 10 11 9 8 8 8 8 7 7 7 6 6 6 6 5
24 21 20 23 26 28 29 29 28 26 25 26 27 24 21 20 20 20 20 19 17 15 13 11 10 8 6 6 7 8 7 5 5 4 4 4 4 4 4 4 4 4 4
18 19 20 22 26 30 31 27 23 22 23 25 25 23 21 19 19 18 18 17 16 15 13 10 8 6 4 4 4 5 4 3 2 1 1 1 1 1 1 1 2 3 4
12 15 17 18 21 27 28 23 20 21 22 23 22 20 20 20 19 18 17 16 16 15 13 11 8 5 4 3 3 3 3 3 2 1 1 1 0 0 0 0 1 1 2
11 13 14 15 18 22 23 21 19 20 20 19 18 19 20 21 20 17 15 15 14 13 12 11 9 6 3 2 2 3 3 3 3 2 2 1 0 0 1 1 0 0 1
15 17 18 19 20 21 21 20 18 17 17 17 17 17 18 19 18 15 13 12 12 11 10 10 9 5 2 1 1 1 2 3 3 2 2 2 1 1 2 2 1 1 0
22 23 23 23 23 23 22 20 18 16 17 17 17 17 17 17 15 12 11 11 11 10 8 8 7 4 1 0 0 0 1 2 2 1 1 1 2 2 3 3 3 2 1
23 25 24 21 22 23 22 19 17 16 17 17 18 18 17 15 13 13 12 12 11 10 8 6 6 4 2 1 0 0 0 1 1 1 0 1 1 2 3 4 4 3 2
20 22 21 20 20 22 21 17 15 14 14 15 16 17 15 13 12 13 12 12 11 10 8 5 4 4 3 2 0 0 0 0 1 1 1 1 1 1 1 2 3 3 2
16 17 17 18 20 22 21 17 14 13 12 12 14 14 13 11 9 10 10 10 9 8 6 4 3 3 3 1 0 0 0 0 1 1 2 2 1 0 0 0 1 1 1
13 13 13 15 18 21 20 19 17 15 13 12 12 12 12 9 7 7 8 7 5 4 3 3 2 2 2 2 0 0 0 0 0 1 1 1 0 0 0 0 0 0 0
10 11 12 14 15 17 17 18 18 17 15 13 11 11 9 7 6 6 6 5 2 1 1 1 1 1 2 2 1 0 0 0 0 0 0 0 0 0 0 0 0 0 0
10 11 14 15 14 13 15 16 17 17 16 12 9 8 6 4 4 4 4 3 1 0 0 1 2 1 1 1 0 0 0 0 0 0 0 0 0 0 0 0 0 0 0
12 12 15 15 13 13 14 16 16 16 16 12 8 5 4 3 3 3 3 2 1 1 0 1 2 2 1 0 0 0 0 0 0 0 0 0 0 0 0 0 0 0 0
Wind_Speed
7 7 7 7 6 6 5 4 3 3 2 2 2 2 2 1 1 2 3 2 2 2 2 1 2 2 2 2 2 2 2 1 1 0 0 1 1 2 2 1 2 3 3
8 8 7 6 6 5 5 4 4 3 2 2 1 1 2 1 2 1 2 2 2 2 3 2 2 2 2 2 2 1 1 1 1 1 1 1 1 1 2 2 2 2 2
8 8 7 6 6 6 5 5 4 4 2 2 2 1 2 1 2 2 2 2 2 2 1 2 2 2 2 2 2 2 2 1 2 1 1 1 1 0 1 2 2 2 1
8 8 7 6 6 6 6 5 5 4 3 2 2 2 2 2 2 2 2 2 2 2 2 2 2 1 1 2 2 2 1 1 1 1 1 1 2 1 1 0 1 2 2
9 9 8 7 6 6 6 5 5 4 3 2 2 2 2 2 2 2 2 2 2 2 2 2 2 2 1 2 1 1 1 1 1 0 0 1 1 1 1 1 1 1 1
8 8 8 8 7 6 6 6 5 4 4 3 3 3 3 2 2 2 2 2 1 1 2 2 2 2 2 2 2 2 1 1 1 0 0 0 1 1 1 1 1 1 1
8 7 7 7 7 6 6 6 6 5 4 4 3 3 3 3 2 2 2 1 1 1 2 2 2 2 2 2 2 2 1 1 1 1 0 0 0 0 0 1 1 1 0
7 7 6 5 6 7 6 5 6 5 5 4 4 3 3 2 2 2 1 2 1 2 2 2 3 2 2 2 2 2 1 1 1 1 1 0 0 0 1 0 0 1 0
7 6 6 5 5 6 6 6 6 5 5 4 4 3 3 2 2 2 2 1 1 2 3 3 3 2 2 2 3 2 2 2 1 1 1 1 0 0 1 1 0 1 1
7 6 4 4 4 6 6 6 6 6 5 4 3 4 3 2 2 2 2 1 1 1 3 3 3 3 2 2 2 2 2 2 2 1 1 0 0 1 1 1 0 0 1
7 6 5 5 5 6 6 6 6 6 5 5 4 3 3 3 2 2 2 2 2 2 2 3 3 3 2 2 2 2 2 2 2 1 2 2 1 0 0 0 0 0 0
7 7 6 6 6 6 6 5 5 6 5 5 4 3 3 3 3 2 2 2 2 2 2 2 2 2 3 2 2 2 2 2 2 1 1 1 1 1 0 0 0 0 1
7 7 6 5 5 5 5 5 5 5 5 5 5 4 4 3 3 2 2 2 2 2 2 2 2 2 2 2 1 1 1 1 1 1 1 1 1 1 0 1 0 0 0
7 7 6 4 4 5 5 5 5 5 5 5 5 5 4 3 3 2 3 2 2 2 2 2 3 3 3 3 2 2 2 2 2 1 1 1 1 0 0 0 0 0 0
7 7 7 5 4 4 4 4 5 5 5 5 5 4 4 4 3 3 3 3 2 3 2 2 3 3 3 3 2 1 2 2 2 1 1 2 3 3 1 1 1 0 0
7 7 6 5 3 4 4 4 5 5 4 4 4 4 4 4 3 3 3 2 2 3 3 3 3 3 3 5 5 3 2 2 1 1 1 1 2 3 3 2 2 1 1
7 7 6 5 3 4 3 4 5 5 4 3 4 4 4 4 4 4 4 3 3 3 3 2 3 4 4 4 4 4 2 1 1 1 1 1 2 2 1 1 1 1 1
7 7 6 6 4 4 4 4 4 5 4 3 4 4 4 4 4 3 3 3 2 2 2 2 3 3 3 3 3 3 1 1 1 1 1 1 2 2 2 1 0 0 0
6 6 6 6 5 4 4 3 4 4 4 4 3 4 4 4 4 3 3 3 2 2 2 2 2 3 3 2 3 3 1 0 0 0 1 1 2 3 3 1 1 1 1
6 6 6 6 5 4 3 3 3 3 3 3 4 3 3 3 3 3 3 2 2 2 2 2 2 3 2 2 2 2 1 1 1 0 2 4 3 2 1 1 1 1 1
6 6 6 6 5 4 3 3 3 3 3 2 3 4 3 3 4 3 2 2 1 2 2 2 2 2 3 3 2 1 0 1 1 1 0 1 2 1 1 1 1 2 2
5 5 5 5 5 4 4 3 2 2 2 2 3 4 3 3 4 3 2 2 1 1 2 2 2 2 3 3 2 2 1 1 2 1 1 0 2 2 3 3 3 3 3
4 4 5 5 4 4 4 3 2 2 2 3 3 3 3 2 3 3 2 2 2 2 2 2 2 2 2 3 3 3 2 2 1 2 2 2 3 3 3 5 5 3 2
4 4 5 5 5 4 4 3 3 2 2 3 3 3 3 3 3 2 2 2 2 1 1 1 1 1 2 2 2 1 1 1 1 2 2 3 4 4 3 3 3 3 3
3 3 3 4 5 4 4 4 3 3 3 2 3 3 3 3 2 2 0 1 1 1 1 0 1 1 1 1 2 1 1 1 1 2 2 2 2 2 2 2 2 3 3
4 3 4 4 4 4 4 3 3 3 3 2 2 2 2 2 3 3 2 3 2 4 4 3 2 2 3 3 2 1 1 2 1 1 2 2 2 3 2 2 2 3 2
Wind_Direction
139 127 126 128 126 121 125 136 140 136 145 160 194 182 175 167 149 138 130 136 153 169 174 161 165 190 182 176 164 172 203 198 164 172 184 161 178 170 158 174 185 177 175
135 134 133 130 131 132 137 133 130 138 154 158 172 174 162 165 152 131 128 145 161 178 175 170 191 173 173 158 154 156 199 208 186 195 168 164 176 207 180 178 187 171 178
147 144 143 140 142 137 141 147 147 150 165 166 161 138 126 140 128 127 133 156 160 167 168 166 184 177 173 162 171 172 193 198 206 197 164 151 153 151 143 180 164 162 172
151 154 152 142 144 143 143 139 144 148 158 159 152 154 148 154 147 136 133 152 142 154 166 171 165 165 156 155 179 180 194 196 217 209 179 153 133 135 129 264 178 167 163
156 155 152 147 144 147 145 142 139 144 150 159 148 143 134 132 123 122 124 144 150 162 165 164 156 155 153 146 149 127 157 182 206 234 185 155 160 174 156 195 204 180 173
148 147 150 147 144 147 144 142 138 143 147 152 138 141 143 141 134 133 140 156 147 168 176 171 154 157 161 154 143 144 163 159 148 9 323 125 142 191 174 176 187 159 195
145 147 151 148 146 143 143 143 141 144 148 153 148 150 152 151 139 135 136 140 143 164 163 160 141 151 153 146 140 144 167 160 149 167 235 269 300 271 124 133 172 137 182
145 148 147 149 149 146 142 138 138 142 153 159 156 156 154 149 130 123 136 143 162 155 155 150 147 153 160 159 143 146 158 150 152 198 189 69 18 22 67 121 139 142 173
146 146 149 152 151 144 139 135 135 137 143 146 142 136 125 125 131 134 140 143 174 152 144 149 149 152 164 164 148 146 159 141 157 189 174 168 220 85 45 33 82 183 197
141 139 138 139 137 134 130 129 132 137 139 143 143 131 127 125 114 110 124 125 116 106 140 142 148 155 157 160 156 150 150 150 159 171 166 139 75 76 74 68 33 338 206
137 137 139 130 126 128 133 130 133 138 140 135 125 125 133 129 118 113 111 114 100 99 127 130 146 151 148 150 152 161 155 152 154 166 152 140 129 63 63 80 92 74 126
135 138 139 139 136 135 133 131 134 138 135 131 129 130 121 113 111 104 90 92 92 87 96 117 125 146 144 150 157 166 156 149 154 155 133 138 146 134 349 337 312 196 188
131 137 136 142 139 135 132 136 137 132 132 132 132 125 116 110 105 102 91 87 92 83 82 105 109 100 103 111 121 122 106 101 95 112 140 156 144 139 193 237 239 272 222
137 134 132 130 136 139 137 137 136 134 130 128 130 129 129 128 122 106 102 89 89 96 95 85 85 85 75 65 73 85 84 86 79 67 62 53 56 73 166 209 161 172 207
150 147 143 137 135 133 133 131 129 132 132 135 131 133 135 132 125 116 113 105 99 105 102 97 92 93 89 65 56 75 103 89 81 73 85 83 83 71 65 60 35 359 217
149 143 136 131 138 133 135 129 125 124 131 137 134 131 136 135 128 120 116 109 91 86 90 90 87 74 69 65 55 42 56 79 85 76 89 136 124 108 93 70 56 53 220
147 144 139 135 137 129 123 129 128 124 126 134 135 139 144 142 136 132 119 115 109 98 89 86 91 91 85 76 56 36 16 54 67 57 12 5 87 94 87 90 83 44 304
146 140 135 134 137 135 138 135 139 141 145 147 145 140 145 139 130 121 118 114 111 114 108 98 91 92 87 85 62 17 354 67 77 79 80 71 68 38 36 31 67 49 36
132 133 133 135 137 141 148 150 153 152 151 148 149 149 146 136 132 125 122 124 125 118 116 112 108 96 78 60 44 13 310 239 247 210 69 71 83 54 27 358 3 11 349
127 131 135 135 136 141 153 160 165 159 153 149 156 150 138 138 132 124 125 129 133 130 135 129 127 122 112 99 60 26 309 306 289 129 108 85 90 85 53 333 305 292 291
126 134 143 143 146 157 159 170 170 160 154 153 148 138 133 139 133 129 134 149 153 143 147 148 145 143 142 140 127 94 2 339 331 304 263 127 139 148 186 238 261 266 285
140 147 148 148 151 163 156 157 171 158 148 144 144 141 144 156 136 133 152 167 162 174 173 169 165 160 148 136 148 161 213 296 308 317 352 331 198 221 237 235 252 276 284
152 156 155 152 156 158 150 154 158 161 146 140 144 143 143 137 137 153 171 179 184 201 197 186 179 172 156 145 158 177 227 266 287 324 333 294 256 249 237 238 247 253 253
159 172 164 159 162 158 150 137 136 137 134 133 140 143 148 152 154 179 183 181 192 201 215 201 174 144 128 120 133 170 223 264 277 295 283 264 253 250 245 235 230 231 239
158 159 153 155 149 150 146 139 137 135 132 140 157 163 163 159 159 169 174 176 125 152 189 49 62 79 99 123 152 187 214 246 283 295 267 253 240 226 229 232 222 222 230
135 149 154 148 146 142 136 137 136 131 132 150 166 172 173 166 181 172 145 66 126 124 116 112 115 93 114 140 140 140 201 236 227 246 261 263 255 251 241 234 227 221 228